Regional Weather Roundup
Issued by NWS Kansas City/Pleasant Hill, MO

Home | Current Version | Previous Version | Text Only | Print | Product List | Glossary On
Versions: 1 2 3 4 5 6 7 8 9 10 11 12 13 14 15 16 17 18 19 20 21 22 23 24 25 26 27 28 29 30 31 32 33 34 35 36 37 38 39 40 41 42 43 44 45 46 47 48 49 50
000
ASUS43 KEAX 300411
RWREAX

WEATHER ROUNDUP FOR EASTERN KANSAS AND NORTHWEST MISSOURI
NATIONAL WEATHER SERVICE KANSAS CITY/PLEASANT HILL MO
1100 PM CDT FRI MAY 29 2015

KSZ040-057-103>105-MOZ028-029-037-043-300500-
...KANSAS CITY METROPOLITAN AREA...

CITY           SKY/WX    TMP DP  RH WIND       PRES   REMARKS
K.C. INTL      CLOUDY    63  62  97 S7        29.99R
K.C. DOWNTOWN  CLOUDY    68  63  84 S5        29.99R
LEES SUMMIT    CLOUDY    65  63  93 CALM      30.01R
OLATHE - IXD   CLOUDY    65  64  97 S3        30.01R
OLATHE - OJC   CLOUDY    65  64  97 S3        30.00R
LAWRENCE       CLOUDY    64  63  96 SE3       29.99R

$$

MOZ001>008-011>017-020>025-030>033-038>040-044>046-053-054-300500-
...NORTHERN AND CENTRAL MISSOURI...

CITY           SKY/WX    TMP DP  RH WIND       PRES   REMARKS
ST. JOSEPH     CLOUDY    66  64  93 S6        29.97R
MOSBY            N/A     64  64 100 SE5       29.99S
HARRISONVILLE  CLOUDY    64  63  94 CALM      30.03R FOG
WARRENSBURG    CLOUDY    64  63  94 CALM      30.00R
WHITEMAN AFB   CLOUDY    66  64  94 SE2       29.99R
CLINTON        CLOUDY    66  66 100 N3        30.00R
SEDALIA        CLOUDY    67  63  87 E3        30.01R
WARSAW         FAIR      66  66 100 CALM      29.99S
CHILLICOTHE      N/A     66  64  93 S5        29.99S
MOBERLY        RAIN      68  64  88 E5        30.00F
KIRKSVILLE     LGT RAIN  67  66  97 S5        30.00S

$$

MOZ041-047>049-056>058-063>065-088>090-097-300500-
...EASTERN AND SOUTHERN MISSOURI...

CITY           SKY/WX    TMP DP  RH WIND       PRES   REMARKS
ST. LOUIS INTL LGT RAIN  73  65  75 S10       30.00R
SPIRIT OF STL  TSTM      70  68  94 W10       30.00R FOG
COLUMBIA       LGT RAIN  66  64  93 E5        29.99S
JEFFERSON CITY RAIN      68  65  90 CALM      29.98S FOG
ROLLA          TSTM      66  65  96 CALM      29.97F FOG
LEBANON        LGT RAIN  68  66  94 CALM      29.99F
OSAGE BEACH    CLOUDY    66  64  94 NE8       29.98F
SPRINGFIELD    LGT RAIN  67  66  97 E5        29.97S
BRANSON        LGT RAIN  64  64 100 CALM      29.98F
NEVADA         CLOUDY    64  64 100 CALM      29.99R
JOPLIN         CLOUDY    63  63 100 CALM      29.98R
WEST PLAINS    LGT RAIN  66  64  93 W5        30.02R FOG
MALDEN         PTCLDY    75  68  78 SE9       29.99F

$$

IAZ060-094-KSZ022-034>040-054-083-096-NEZ052-066-093-300500-
...KANSAS...SOUTHEAST NEBRASKA AND IOWA...

CITY           SKY/WX    TMP DP  RH WIND       PRES   REMARKS
TOPEKA         CLOUDY    66  65  96 CALM      29.99R
MANHATTAN      CLOUDY    64  58  80 N14G25    30.03R
EMPORIA        CLOUDY    65  64  97 S6        29.99R
CHANUTE        CLOUDY    65  64  97 CALM      29.99R
WICHITA        MOCLDY    69  65  86 S3        29.99R
OMAHA          CLOUDY    57  53  86 N17G31    30.05R
LINCOLN        CLOUDY    57  51  80 N21G29    30.09R
FALLS CITY     LGT RAIN  65  62  90 N10       29.99R
LAMONI         CLOUDY    67  63  87 S7        29.96S
DES MOINES     LGT RAIN  68  63  84 N10       29.95R

$$



USA.gov is the U.S. government's official web portal to all federal, state and local government web resources and services.